48.5°F
Current conditions from King Hill
Updated every 5 minutes
 
  Saturday October 25, 2014

Station Historical Data
Daily Summary for September 29, 2011 Units:  Metric    English   Both
« Previous Day
Next Day »
Daily Weekly Monthly Yearly Custom
  High: Low: Average:
Temperature: 18.7 °C 13.9 °C 16.6 °C
Dew Point: 16.2 °C 11.8 °C 14.3 °C
Humidity: 96% 74% 87%
Wind Speed: 11.3km/h 1.6km/h 3.5km/h
Wind Gust: 32.2km/h - -
Wind- - SSW
Pressure: 1011.7 hPa 996.8 hPa -
Precipitation: 32.3 mm    
Historical Graphs
 
 
Tabular Data for September 29, 2011
Time Temperature Dew Point Pressure Wind Wind Speed Wind Gust Humidity Daily Rainfall
00:00 17.3 °C 12.9 °C 1011.7 hPa SSW 1.6 km/h 12.9 km/h 75% 0 mm
00:05 17.3 °C 12.9 °C 1011.7 hPa South 4.8 km/h 12.9 km/h 75% 0 mm
00:10 17.3 °C 12.8 °C 1011.4 hPa SSE 3.2 km/h 16.1 km/h 75% 0 mm
00:15 17.3 °C 13 °C 1011.4 hPa Calm   16.1 km/h 76% 0 mm
00:20 17.2 °C 12.9 °C 1011.1 hPa Calm   11.3 km/h 76% 0 mm
00:25 17.1 °C 12.8 °C 1011.1 hPa SSE 3.2 km/h 19.3 km/h 76% 0 mm
00:30 17.1 °C 12.7 °C 1011.1 hPa South 8 km/h 24.1 km/h 75% 0 mm
00:35 17.1 °C 12.6 °C 1011.1 hPa South 1.6 km/h 25.7 km/h 75% 0 mm
00:40 17.1 °C 12.8 °C 1011.1 hPa SSE 3.2 km/h 25.7 km/h 76% 0 mm
00:45 17 °C 12.7 °C 1011.1 hPa SSW 1.6 km/h 14.5 km/h 76% 0 mm
00:50 16.9 °C 12.5 °C 1010.7 hPa South 3.2 km/h 16.1 km/h 75% 0 mm
00:55 16.9 °C 12.4 °C 1010.7 hPa South 6.4 km/h 19.3 km/h 75% 0 mm
01:00 16.8 °C 12.6 °C 1010.7 hPa SSE 4.8 km/h 22.5 km/h 76% 0 mm
01:05 16.7 °C 12.3 °C 1010.7 hPa SSW 1.6 km/h 22.5 km/h 75% 0 mm
01:10 16.6 °C 12.2 °C 1010.4 hPa SSW 3.2 km/h 12.9 km/h 75% 0 mm
01:15 16.6 °C 12.1 °C 1010.4 hPa Calm   16.1 km/h 75% 0 mm
01:20 16.6 °C 12.1 °C 1010.4 hPa Calm   16.1 km/h 75% 0 mm
01:25 16.4 °C 11.8 °C 1010.4 hPa SSE 3.2 km/h 12.9 km/h 74% 0 mm
01:30 16.4 °C 11.8 °C 1010.4 hPa South 3.2 km/h 12.9 km/h 74% 0 mm
01:35 16.4 °C 12 °C 1010 hPa South 4.8 km/h 12.9 km/h 75% 0 mm
01:40 16.5 °C 12.1 °C 1010 hPa South 1.6 km/h 17.7 km/h 75% 0 mm
01:45 16.6 °C 12.1 °C 1010 hPa SW 3.2 km/h 17.7 km/h 75% 0 mm
01:50 16.6 °C 12.1 °C 1010 hPa Calm   17.7 km/h 75% 0 mm
01:55 16.5 °C 12.3 °C 1010 hPa Calm   8 km/h 76% 0 mm
02:00 16.5 °C 12.3 °C 1010 hPa SSW 1.6 km/h 9.7 km/h 76% 0 mm
02:05 16.6 °C 12.6 °C 1010 hPa South 1.6 km/h 11.3 km/h 77% 0 mm
02:10 16.7 °C 12.6 °C 1009.7 hPa SSW 4.8 km/h 17.7 km/h 77% 0 mm
02:15 16.7 °C 12.7 °C 1009.7 hPa SSW 4.8 km/h 17.7 km/h 77% 0 mm
02:20 16.8 °C 12.8 °C 1009.7 hPa South 4.8 km/h 16.1 km/h 77% 0 mm
02:25 16.8 °C 12.8 °C 1009.7 hPa SSW 3.2 km/h 16.1 km/h 77% 0 mm
02:30 16.8 °C 12.8 °C 1009.4 hPa South 1.6 km/h 20.9 km/h 77% 0 mm
02:35 16.8 °C 13 °C 1009.4 hPa Calm   20.9 km/h 78% 0 mm
02:40 16.9 °C 13.1 °C 1009.4 hPa South 6.4 km/h 24.1 km/h 78% 0 mm
02:45 16.9 °C 13.1 °C 1009.4 hPa South 6.4 km/h 24.1 km/h 78% 0 mm
02:50 16.7 °C 13.3 °C 1009.4 hPa South 8 km/h 20.9 km/h 80% 0 mm
02:55 16.4 °C 13.4 °C 1009.4 hPa South 3.2 km/h 20.9 km/h 82% 0 mm
03:00 16.3 °C 13.4 °C 1009.4 hPa South 3.2 km/h 16.1 km/h 83% 0 mm
03:05 16.1 °C 13.3 °C 1009 hPa SW 1.6 km/h 16.1 km/h 84% 0 mm
03:10 15.9 °C 13.2 °C 1009 hPa Calm   12.9 km/h 84% 0 mm
03:15 15.8 °C 13.3 °C 1008.7 hPa South 1.6 km/h 12.9 km/h 85% 0 mm
03:20 15.7 °C 13.3 °C 1008.7 hPa SSW 1.6 km/h 12.9 km/h 86% 0 mm
03:30 15.6 °C 13.2 °C 1008.7 hPa Calm   14.5 km/h 86% 0 mm
03:35 15.6 °C 13.2 °C 1008.7 hPa SSW 1.6 km/h 8 km/h 86% 0 mm
03:40 15.4 °C 13.3 °C 1008.7 hPa SSW 1.6 km/h 14.5 km/h 87% 0 mm
03:50 15.4 °C 13.2 °C 1008.4 hPa South 1.6 km/h 9.7 km/h 87% 0 mm
03:55 15.4 °C 13.3 °C 1008.4 hPa SSW 6.4 km/h 17.7 km/h 87% 0 mm
04:00 15.5 °C 13.2 °C 1008.4 hPa SSW 4.8 km/h 17.7 km/h 86% 0 mm
04:05 15.4 °C 13.1 °C 1008.7 hPa SSW 3.2 km/h 16.1 km/h 86% 0 mm
04:10 15.4 °C 13.1 °C 1008.4 hPa SSW 4.8 km/h 11.3 km/h 86% 0 mm
04:15 15.3 °C 12.9 °C 1008.7 hPa Calm   11.3 km/h 86% 0 mm
04:20 15.3 °C 13.1 °C 1008.4 hPa Calm   11.3 km/h 87% 0 mm
04:25 15.2 °C 13.1 °C 1008.4 hPa South 1.6 km/h 11.3 km/h 87% 0 mm
04:35 15.3 °C 13.1 °C 1008.4 hPa SSW 1.6 km/h 14.5 km/h 87% 0 mm
04:40 15.4 °C 13.1 °C 1008.4 hPa South 1.6 km/h 14.5 km/h 86% 0 mm
04:45 15.4 °C 13.1 °C 1008.4 hPa SSW 3.2 km/h 14.5 km/h 86% 0 mm
04:50 15.5 °C 13.2 °C 1008 hPa South 3.2 km/h 14.5 km/h 86% 0 mm
04:55 15.6 °C 13.1 °C 1008 hPa South 3.2 km/h 12.9 km/h 85% 0 mm
05:00 15.7 °C 13.2 °C 1008 hPa South 6.4 km/h 16.1 km/h 85% 0 mm
05:05 15.8 °C 13.3 °C 1007.7 hPa South 3.2 km/h 17.7 km/h 85% 0 mm
05:10 15.8 °C 13.3 °C 1008 hPa SSE 3.2 km/h 17.7 km/h 85% 0 mm
05:15 15.8 °C 13.3 °C 1007.7 hPa Calm   16.1 km/h 85% 0 mm
05:20 15.8 °C 13.5 °C 1007.7 hPa ESE 1.6 km/h 9.7 km/h 86% 0 mm
05:25 15.8 °C 13.5 °C 1007.7 hPa Calm   9.7 km/h 86% 0 mm
05:30 15.8 °C 13.5 °C 1007.3 hPa SSE 1.6 km/h 9.7 km/h 86% 0 mm
05:35 15.9 °C 13.6 °C 1007.3 hPa Calm   9.7 km/h 86% 0 mm
05:40 15.9 °C 13.6 °C 1007.3 hPa Calm   1.6 km/h 86% 0 mm
05:45 15.9 °C 13.6 °C 1007.3 hPa Calm   3.2 km/h 86% 0 mm
05:50 16 °C 13.7 °C 1007.3 hPa South 1.6 km/h 11.3 km/h 86% 0 mm
05:55 16.1 °C 13.6 °C 1007.3 hPa South 3.2 km/h 16.1 km/h 85% 0 mm
06:00 16.2 °C 13.5 °C 1007.3 hPa SSW 1.6 km/h 16.1 km/h 84% 0 mm
06:05 16.3 °C 13.4 °C 1007.3 hPa South 3.2 km/h 14.5 km/h 83% 0 mm
06:10 16.5 °C 13.4 °C 1007.3 hPa SSW 3.2 km/h 17.7 km/h 82% 0 mm
06:15 16.6 °C 13.5 °C 1007.3 hPa South 4.8 km/h 17.7 km/h 82% 0 mm
06:20 16.6 °C 13.3 °C 1007 hPa SW 3.2 km/h 17.7 km/h 81% 0 mm
06:30 16.6 °C 13.3 °C 1007 hPa South 3.2 km/h 16.1 km/h 81% 0 mm
06:35 16.6 °C 13.3 °C 1007 hPa SSW 4.8 km/h 20.9 km/h 81% 0 mm
06:40 16.6 °C 13.3 °C 1007 hPa SSE 1.6 km/h 20.9 km/h 81% 0 mm
06:50 16.5 °C 13.4 °C 1007 hPa South 3.2 km/h 16.1 km/h 82% 0 mm
06:55 16.6 °C 13.5 °C 1006.7 hPa South 3.2 km/h 16.1 km/h 82% 0 mm
07:00 16.6 °C 13.5 °C 1006.7 hPa SSW 6.4 km/h 16.1 km/h 82% 0 mm
07:05 16.7 °C 13.4 °C 1006.7 hPa SSW 3.2 km/h 16.1 km/h 81% 0 mm
07:10 16.7 °C 13.4 °C 1006.7 hPa SSW 1.6 km/h 11.3 km/h 81% 0 mm
07:15 16.8 °C 13.5 °C 1006.7 hPa South 1.6 km/h 16.1 km/h 81% 0 mm
07:20 16.8 °C 13.5 °C 1006.7 hPa Calm   16.1 km/h 81% 0 mm
07:25 16.8 °C 13.5 °C 1006.3 hPa SSW 1.6 km/h 12.9 km/h 81% 0 mm
07:30 16.8 °C 13.5 °C 1006.7 hPa South 1.6 km/h 12.9 km/h 81% 0 mm
07:35 16.9 °C 13.8 °C 1006.7 hPa Calm   20.9 km/h 82% 0 mm
07:45 17.1 °C 13.8 °C 1006.7 hPa SSW 1.6 km/h 22.5 km/h 81% 0 mm
07:50 17.3 °C 14 °C 1006.3 hPa SW 1.6 km/h 16.1 km/h 81% 0 mm
07:55 17.3 °C 14.1 °C 1006.7 hPa SW 1.6 km/h 16.1 km/h 81% 0 mm
08:00 17.3 °C 14.1 °C 1006.3 hPa Calm   11.3 km/h 81% 0 mm
08:05 17.3 °C 14.1 °C 1006.3 hPa South 4.8 km/h 11.3 km/h 81% 0 mm
08:10 17.4 °C 14.1 °C 1006.7 hPa SSW 6.4 km/h 19.3 km/h 81% 0 mm
08:15 17.4 °C 14.2 °C 1006.7 hPa South 1.6 km/h 19.3 km/h 81% 0 mm
08:20 17.4 °C 13.9 °C 1006.3 hPa South 6.4 km/h 25.7 km/h 80% 0 mm
08:30 17.4 °C 13.9 °C 1006.3 hPa SSW 3.2 km/h 19.3 km/h 80% 0 mm
08:35 17.4 °C 13.9 °C 1006.3 hPa South 3.2 km/h 17.7 km/h 80% 0 mm
08:40 17.5 °C 14.2 °C 1006.3 hPa SSW 1.6 km/h 17.7 km/h 81% 0 mm
08:45 17.6 °C 14.1 °C 1006.3 hPa Calm   12.9 km/h 80% 0 mm
08:50 17.6 °C 14.1 °C 1006.3 hPa SW 3.2 km/h 12.9 km/h 80% 0 mm
08:55 17.7 °C 14.4 °C 1006 hPa SSW 1.6 km/h 12.9 km/h 81% 0 mm
09:00 17.7 °C 14.2 °C 1006.3 hPa SSW 3.2 km/h 12.9 km/h 80% 0 mm
09:05 17.7 °C 14.2 °C 1006 hPa South 1.6 km/h 12.9 km/h 80% 0 mm
09:10 17.7 °C 14.2 °C 1006 hPa SSW 1.6 km/h 14.5 km/h 80% 0 mm
09:15 17.7 °C 14.2 °C 1006 hPa SSW 1.6 km/h 14.5 km/h 80% 0 mm
09:20 17.7 °C 14.2 °C 1006 hPa SSW 1.6 km/h 14.5 km/h 80% 0 mm
09:25 17.7 °C 14.2 °C 1006 hPa SW 4.8 km/h 19.3 km/h 80% 0 mm
09:35 17.7 °C 14.4 °C 1005.6 hPa SSW 1.6 km/h 16.1 km/h 81% 0 mm
09:40 17.6 °C 14.1 °C 1005.6 hPa Calm   14.5 km/h 80% 0 mm
09:45 17.5 °C 14.2 °C 1005.6 hPa SSE 1.6 km/h 17.7 km/h 81% 0 mm
09:50 17.4 °C 14.3 °C 1005.6 hPa SSW 3.2 km/h 17.7 km/h 82% 0.3 mm
09:55 17.2 °C 14.4 °C 1005.6 hPa South 3.2 km/h 14.5 km/h 84% 0.5 mm
10:00 16.9 °C 14.3 °C 1005.6 hPa Calm   16.1 km/h 85% 0.5 mm
10:05 16.7 °C 14.4 °C 1005.6 hPa Calm   16.1 km/h 86% 0.5 mm
10:10 16.6 °C 14.4 °C 1005.6 hPa Calm   11.3 km/h 87% 0.5 mm
10:15 16.4 °C 14.3 °C 1005.3 hPa Calm   11.3 km/h 87% 0.5 mm
10:20 16.4 °C 14.4 °C 1005.3 hPa SSE 1.6 km/h 14.5 km/h 88% 0.5 mm
10:25 16.4 °C 14.6 °C 1005.3 hPa SSE 3.2 km/h 14.5 km/h 89% 0.5 mm
10:30 16.4 °C 14.6 °C 1005.3 hPa Calm   14.5 km/h 89% 0.5 mm
10:35 16.3 °C 14.5 °C 1005.3 hPa SSE 3.2 km/h 11.3 km/h 89% 0.8 mm
10:40 16.3 °C 14.5 °C 1005.3 hPa SSW 3.2 km/h 11.3 km/h 89% 0.8 mm
10:45 16.4 °C 14.7 °C 1005.3 hPa Calm   11.3 km/h 90% 1 mm
10:50 16.5 °C 14.8 °C 1005.3 hPa Calm   6.4 km/h 90% 1 mm
10:55 16.5 °C 14.8 °C 1005 hPa SSW 1.6 km/h 11.3 km/h 90% 1 mm
11:00 16.5 °C 14.8 °C 1005 hPa Calm   11.3 km/h 90% 1 mm
11:05 16.5 °C 14.8 °C 1005 hPa SSW 4.8 km/h 14.5 km/h 90% 1.3 mm
11:10 16.5 °C 14.8 °C 1004.6 hPa South 1.6 km/h 14.5 km/h 90% 1.3 mm
11:15 16.5 °C 14.8 °C 1004.6 hPa SSE 1.6 km/h 12.9 km/h 90% 1.5 mm
11:25 16.5 °C 14.8 °C 1004.3 hPa Calm   12.9 km/h 90% 1.8 mm
11:30 16.5 °C 14.8 °C 1004.3 hPa Calm   9.7 km/h 90% 2 mm
11:40 16.5 °C 14.8 °C 1004.3 hPa SSE 3.2 km/h 12.9 km/h 90% 2.3 mm
11:45 16.6 °C 15.1 °C 1003.9 hPa Calm   12.9 km/h 91% 2.5 mm
11:55 16.6 °C 14.9 °C 1003.6 hPa SSE 1.6 km/h 14.5 km/h 90% 2.8 mm
12:00 16.6 °C 14.9 °C 1003.6 hPa Calm   9.7 km/h 90% 2.8 mm
12:05 16.7 °C 15.2 °C 1003.3 hPa Calm   8 km/h 91% 3 mm
12:10 16.7 °C 15.2 °C 1003.3 hPa Calm   8 km/h 91% 3 mm
12:15 16.7 °C 15.2 °C 1003.3 hPa Calm   8 km/h 91% 3.3 mm
12:25 16.7 °C 15.2 °C 1003.3 hPa Calm   1.6 km/h 91% 3.3 mm
12:30 16.8 °C 15.3 °C 1003.3 hPa Calm   8 km/h 91% 3.3 mm
12:35 16.8 °C 15.3 °C 1003.3 hPa Calm   11.3 km/h 91% 3.3 mm
12:40 16.9 °C 15.4 °C 1003.3 hPa Calm   11.3 km/h 91% 3.3 mm
12:50 16.9 °C 15.4 °C 1003.3 hPa Calm   8 km/h 91% 3.3 mm
12:55 16.9 °C 15.4 °C 1002.9 hPa Calm   8 km/h 91% 3.3 mm
13:00 16.9 °C 15.4 °C 1002.6 hPa Calm   1.6 km/h 91% 3.3 mm
13:05 16.9 °C 15.4 °C 1002.6 hPa Calm   1.6 km/h 91% 3.3 mm
13:10 17.1 °C 15.6 °C 1002.6 hPa South 1.6 km/h 6.4 km/h 91% 3.3 mm
13:15 17.1 °C 15.6 °C 1002.6 hPa Calm   6.4 km/h 91% 3.3 mm
13:20 17.1 °C 15.6 °C 1002.6 hPa SW 3.2 km/h 8 km/h 91% 3.3 mm
13:30 17.1 °C 15.6 °C 1002.3 hPa Calm   11.3 km/h 91% 3.3 mm
13:40 17.1 °C 15.4 °C 1002.3 hPa SSW 1.6 km/h 6.4 km/h 90% 3.3 mm
13:45 17.2 °C 15.7 °C 1002.3 hPa Calm   6.4 km/h 91% 3.3 mm
13:50 17.3 °C 15.6 °C 1002.3 hPa Calm   6.4 km/h 90% 3.3 mm
13:55 17.3 °C 15.7 °C 1001.9 hPa Calm   8 km/h 90% 3.3 mm
14:00 17.4 °C 15.7 °C 1001.9 hPa Calm   8 km/h 90% 3.3 mm
14:05 17.4 °C 15.7 °C 1001.9 hPa Calm     90% 3.3 mm
14:10 17.5 °C 15.8 °C 1001.9 hPa Calm   4.8 km/h 90% 3.3 mm
14:15 17.6 °C 15.9 °C 1001.6 hPa Calm   4.8 km/h 90% 3.3 mm
14:20 17.7 °C 16 °C 1001.6 hPa ESE 3.2 km/h 9.7 km/h 90% 3.3 mm
14:25 17.7 °C 15.9 °C 1001.6 hPa Calm   9.7 km/h 89% 3.3 mm
14:30 17.8 °C 15.8 °C 1001.6 hPa SSE 3.2 km/h 11.3 km/h 88% 3.3 mm
14:35 17.9 °C 15.9 °C 1001.6 hPa Calm   11.3 km/h 88% 3.3 mm
14:40 18 °C 15.8 °C 1001.2 hPa Calm   11.3 km/h 87% 3.3 mm
14:45 18.1 °C 15.7 °C 1001.2 hPa South 1.6 km/h 11.3 km/h 86% 3.3 mm
14:50 18.2 °C 16.2 °C 1001.2 hPa SSW 1.6 km/h 8 km/h 88% 3.3 mm
14:55 18.3 °C 15.9 °C 1001.2 hPa South 1.6 km/h 11.3 km/h 86% 3.3 mm
15:00 18.4 °C 15.8 °C 1000.9 hPa Calm   11.3 km/h 85% 3.3 mm
15:05 18.5 °C 16.1 °C 1000.9 hPa Calm   9.7 km/h 86% 3.3 mm
15:10 18.6 °C 16.2 °C 1000.9 hPa Calm   9.7 km/h 86% 3.3 mm
15:15 18.7 °C 16.1 °C 1000.6 hPa SSE 1.6 km/h 9.7 km/h 85% 3.3 mm
15:20 18.7 °C 15.9 °C 1000.6 hPa Calm   9.7 km/h 84% 3.3 mm
15:25 18.6 °C 15.7 °C 1000.2 hPa South 1.6 km/h 9.7 km/h 83% 3.3 mm
15:30 18.5 °C 15.6 °C 1000.2 hPa South 3.2 km/h 11.3 km/h 83% 3.3 mm
15:35 18.4 °C 15.5 °C 1000.2 hPa South 1.6 km/h 11.3 km/h 83% 3.3 mm
15:45 18.4 °C 15.7 °C 999.9 hPa Calm   11.3 km/h 84% 3.3 mm
15:55 18.4 °C 15.5 °C 999.5 hPa Calm   8 km/h 83% 3.3 mm
16:00 18.4 °C 15.4 °C 999.5 hPa SSW 1.6 km/h 11.3 km/h 83% 3.3 mm
16:05 18.4 °C 15.7 °C 999.5 hPa Calm   11.3 km/h 84% 3.3 mm
16:10 18.5 °C 15.9 °C 999.5 hPa Calm   1.6 km/h 85% 3.3 mm
16:15 18.5 °C 15.9 °C 999.2 hPa Calm     85% 3.3 mm
16:20 18.4 °C 15.7 °C 999.2 hPa Calm   4.8 km/h 84% 3.3 mm
16:25 18.4 °C 15.6 °C 999.2 hPa SSW 1.6 km/h 6.4 km/h 84% 3.3 mm
16:30 18.4 °C 15.6 °C 999.2 hPa Calm   6.4 km/h 84% 3.3 mm
16:35 18.3 °C 15.6 °C 998.9 hPa Calm   3.2 km/h 84% 3.3 mm
16:40 18.2 °C 15.7 °C 998.9 hPa Calm   3.2 km/h 85% 3.3 mm
16:45 18.2 °C 15.6 °C 998.9 hPa Calm   1.6 km/h 85% 3.3 mm
16:50 18.1 °C 15.5 °C 998.5 hPa Calm   1.6 km/h 85% 3.3 mm
16:55 18 °C 15.6 °C 998.5 hPa Calm   6.4 km/h 86% 3.3 mm
17:00 17.9 °C 15.6 °C 998.5 hPa Calm   6.4 km/h 86% 3.3 mm
17:05 17.8 °C 15.3 °C 998.5 hPa SE 1.6 km/h 9.7 km/h 85% 3.3 mm
17:10 17.8 °C 15.3 °C 998.5 hPa Calm   9.7 km/h 85% 3.3 mm
17:15 17.8 °C 15.4 °C 998.5 hPa Calm   3.2 km/h 86% 3.3 mm
17:20 17.8 °C 15.7 °C 998.5 hPa Calm   3.2 km/h 87% 3.3 mm
17:25 17.7 °C 15.3 °C 998.2 hPa Calm   1.6 km/h 86% 3.3 mm
17:30 17.6 °C 15.4 °C 998.2 hPa Calm   1.6 km/h 87% 3.3 mm
17:35 17.6 °C 15.4 °C 998.2 hPa Calm   1.6 km/h 87% 3.3 mm
17:40 17.4 °C 15.2 °C 998.2 hPa Calm   3.2 km/h 87% 3.3 mm
17:45 17.3 °C 15.2 °C 997.9 hPa Calm   3.2 km/h 87% 3.3 mm
17:50 17.3 °C 15.3 °C 997.9 hPa Calm   1.6 km/h 88% 3.3 mm
17:55 17.2 °C 15.2 °C 997.5 hPa South 1.6 km/h 4.8 km/h 88% 3.6 mm
18:00 17.1 °C 15.3 °C 997.5 hPa Calm   4.8 km/h 89% 3.6 mm
18:05 17.1 °C 15.2 °C 997.5 hPa Calm   1.6 km/h 89% 3.6 mm
18:10 17 °C 15.3 °C 997.9 hPa Calm   1.6 km/h 90% 3.6 mm
18:15 16.9 °C 15.3 °C 997.9 hPa Calm   1.6 km/h 90% 3.6 mm
18:20 16.8 °C 15.2 °C 997.9 hPa Calm   1.6 km/h 90% 3.6 mm
18:25 16.8 °C 15.3 °C 997.5 hPa Calm   1.6 km/h 91% 4.1 mm
18:30 16.7 °C 15.2 °C 997.5 hPa Calm     91% 4.6 mm
18:35 16.7 °C 15.2 °C 997.5 hPa Calm     91% 5.1 mm
18:45 16.6 °C 15.3 °C 997.2 hPa Calm   1.6 km/h 92% 6.1 mm
18:50 16.6 °C 15.3 °C 997.2 hPa Calm   3.2 km/h 92% 6.1 mm
18:55 16.4 °C 15.2 °C 997.2 hPa Calm   3.2 km/h 92% 6.6 mm
19:00 16.4 °C 15.3 °C 997.2 hPa South 1.6 km/h 4.8 km/h 93% 6.9 mm
19:05 16.4 °C 15.3 °C 997.2 hPa West 6.4 km/h 14.5 km/h 93% 7.6 mm
19:10 16.5 °C 15.4 °C 997.2 hPa SSW 3.2 km/h 14.5 km/h 93% 9.4 mm
19:15 16.5 °C 15.4 °C 997.2 hPa SSW 1.6 km/h 12.9 km/h 93% 9.9 mm
19:20 16.4 °C 15.3 °C 997.5 hPa SW 6.4 km/h 12.9 km/h 93% 10.2 mm
19:25 16.3 °C 15.2 °C 997.5 hPa WSW 6.4 km/h 16.1 km/h 93% 10.7 mm
19:30 16.2 °C 15.1 °C 997.9 hPa WSW 8 km/h 19.3 km/h 93% 11.2 mm
19:35 16.2 °C 15.1 °C 997.9 hPa WSW 8 km/h 22.5 km/h 93% 11.9 mm
19:40 16.2 °C 15.2 °C 998.2 hPa WSW 8 km/h 22.5 km/h 94% 12.7 mm
19:45 16.2 °C 15.2 °C 998.2 hPa West 9.7 km/h 19.3 km/h 94% 13.5 mm
19:50 16.1 °C 15.2 °C 998.2 hPa West 9.7 km/h 22.5 km/h 94% 14 mm
19:55 16.1 °C 15.3 °C 998.2 hPa West 8 km/h 22.5 km/h 95% 14.7 mm
20:05 16.1 °C 15.3 °C 998.2 hPa SW 6.4 km/h 19.3 km/h 95% 15.7 mm
20:10 16.1 °C 15.3 °C 998.2 hPa West 8 km/h 22.5 km/h 95% 16.5 mm
20:15 16 °C 15.2 °C 998.2 hPa SW 4.8 km/h 22.5 km/h 95% 19.3 mm
20:20 15.7 °C 14.9 °C 998.2 hPa SW 11.3 km/h 19.3 km/h 95% 20.3 mm
20:30 15.2 °C 14.4 °C 998.2 hPa SW 6.4 km/h 19.3 km/h 95% 21.1 mm
20:35 15 °C 14.2 °C 997.9 hPa SW 6.4 km/h 14.5 km/h 95% 21.3 mm
20:40 15 °C 14.2 °C 997.5 hPa Calm   14.5 km/h 95% 21.6 mm
20:45 15 °C 14.2 °C 997.9 hPa Calm   8 km/h 95% 21.8 mm
20:50 15 °C 14.2 °C 997.5 hPa Calm   8 km/h 95% 21.8 mm
20:55 15 °C 14.2 °C 997.5 hPa Calm   8 km/h 95% 21.8 mm
21:00 15 °C 14.2 °C 997.5 hPa WSW 3.2 km/h 12.9 km/h 95% 21.8 mm
21:05 15 °C 14.2 °C 997.2 hPa West 1.6 km/h 12.9 km/h 95% 21.8 mm
21:10 15 °C 14.4 °C 996.8 hPa Calm   4.8 km/h 96% 21.8 mm
21:15 15 °C 14.4 °C 996.8 hPa Calm   4.8 km/h 96% 22.1 mm
21:20 15 °C 14.4 °C 996.8 hPa Calm   1.6 km/h 96% 22.1 mm
21:25 15 °C 14.2 °C 997.2 hPa WNW 4.8 km/h 14.5 km/h 95% 22.4 mm
21:30 15 °C 14.4 °C 997.5 hPa WNW 3.2 km/h 14.5 km/h 96% 22.4 mm
21:35 14.9 °C 14.2 °C 997.5 hPa WNW 3.2 km/h 12.9 km/h 95% 22.4 mm
21:40 14.9 °C 14.2 °C 997.5 hPa WNW 4.8 km/h 11.3 km/h 95% 22.4 mm
21:45 14.8 °C 14 °C 997.5 hPa WSW 3.2 km/h 16.1 km/h 95% 22.6 mm
21:50 14.6 °C 13.8 °C 997.5 hPa NW 3.2 km/h 16.1 km/h 95% 22.6 mm
21:55 14.6 °C 13.8 °C 997.5 hPa Calm   9.7 km/h 95% 22.6 mm
22:00 14.6 °C 13.8 °C 997.5 hPa Calm   1.6 km/h 95% 22.6 mm
22:05 14.5 °C 13.7 °C 997.9 hPa WNW 1.6 km/h 6.4 km/h 95% 23.1 mm
22:10 14.4 °C 13.7 °C 997.9 hPa Calm   6.4 km/h 95% 24.6 mm
22:15 14.4 °C 13.6 °C 997.9 hPa Calm   6.4 km/h 95% 30.2 mm
22:20 14.4 °C 13.8 °C 997.5 hPa SW 8 km/h 12.9 km/h 96% 31 mm
22:25 14.5 °C 13.9 °C 997.9 hPa Calm   12.9 km/h 96% 31.2 mm
22:30 14.6 °C 14 °C 997.9 hPa WSW 4.8 km/h 12.9 km/h 96% 31.5 mm
22:40 14.5 °C 13.7 °C 997.9 hPa WSW 3.2 km/h 25.7 km/h 95% 31.5 mm
22:45 14.5 °C 13.7 °C 997.9 hPa WSW 4.8 km/h 16.1 km/h 95% 31.5 mm
22:50 14.5 °C 13.9 °C 997.9 hPa WSW 4.8 km/h 16.1 km/h 96% 31.5 mm
22:55 14.5 °C 13.9 °C 998.2 hPa SW 4.8 km/h 12.9 km/h 96% 31.8 mm
23:00 14.6 °C 13.9 °C 998.2 hPa SW 4.8 km/h 17.7 km/h 96% 31.8 mm
23:05 14.6 °C 13.9 °C 998.2 hPa SW 8 km/h 32.2 km/h 96% 31.8 mm
23:10 14.3 °C 13.6 °C 998.2 hPa West 8 km/h 32.2 km/h 95% 31.8 mm
23:15 14.3 °C 13.5 °C 998.5 hPa WSW 8 km/h 27.4 km/h 95% 32 mm
23:20 14.2 °C 13.4 °C 998.2 hPa West 1.6 km/h 20.9 km/h 95% 32 mm
23:30 14.1 °C 13.3 °C 998.2 hPa WSW 3.2 km/h 20.9 km/h 95% 32 mm
23:35 14.1 °C 13.3 °C 998.2 hPa SW 3.2 km/h 20.9 km/h 95% 32 mm
23:40 14.1 °C 13.3 °C 998.2 hPa SW 6.4 km/h 20.9 km/h 95% 32 mm
23:45 14.1 °C 13.3 °C 998.5 hPa WSW 3.2 km/h 16.1 km/h 95% 32 mm
23:50 14 °C 13.2 °C 998.5 hPa SW 6.4 km/h 14.5 km/h 95% 32.3 mm
23:55 13.9 °C 13.2 °C 998.5 hPa SW 1.6 km/h 14.5 km/h 95% 32.3 mm
Westford Weather
Compliments of Weather Underground

 
 
Current Radar Loop:

Copyright © WestfordWeather.net 2007-2014. All rights reserved.